World > North America > United States > New Hampshire

West Franklin, New Hampshire Regional Weather

Lat: 43.44N, Lon: 71.66W
Wx Zone: NHZ008
Warning NWS WEATHER ALERT - SPECIAL WEATHER STATEMENT (More Info. Click Here) Warning
Feedback

West Franklin, NH Regional Weather

Expires:201910171500;;846082
ASUS41 KBOX 171410
RWRBOX

REGIONAL WEATHER ROUNDUP
NATIONAL WEATHER SERVICE BOSTON/NORTON MA
1000 AM EDT THU OCT 17 2019

NOTE:  "FAIR" INDICATES FEW OR NO CLOUDS BELOW 12,000 FEET WITH NO 
SIGNIFICANT WEATHER AND/OR OBSTRUCTIONS TO VISIBILITY.


MEZ002-015-021-024-NHZ003-005-008-011-012-014-VTZ005-008-171500-
NORTHERN NEW ENGLAND
  
CITY           SKY/WX    TMP DP  RH WIND       PRES   REMARKS
PORTLAND ME    CLOUDY    55  48  77 S18G30    28.84R                  
BANGOR ME      LGT RAIN  54  52  93 NE17      28.98F FOG              
CONCORD NH     LGT RAIN  47  44  90 SW16G30   28.80R FOG              
MANCHESTER NH  CLOUDY    50  41  71 SW18G33   28.86R                  
NASHUA NH      CLOUDY    48  45  87 SW13G25   28.92R                  
PORTSMOUTH NH  LGT RAIN  50  45  84 SW18G28   28.84R                  
JAFFREY NH     LGT RAIN  44  40  85 SW13G24   28.93R FOG              
KEENE NH       RAIN      45  43  93 SW12      28.95R                  
BURLINGTON VT  LGT RAIN  45  42  89 N23G33    29.00F FOG              
MT. WASHINGTON LGT RAIN  34  34 100 E60G75      N/A  VSB 1/16WCI  16  
$$


SKY/WX - Weather  TMP - Temperature  DP - Dew Point  RH - Relative Humidity
WIND - Wind Direction/Speed PRES - Barometric Pressure VSB - Visibility
WCI - Wind Chill Index E13G22 Wind - East Wind 13 mph/Gusts of 22 mph